Jacksonville NAS, FL

3:04 PM EDT on June 23, 2017 (GMT -0400)
Jacksonville Naval Air Station

Weather History for KNIP - November, 2012

Change the Weather History Date:

Saturday, November 17, 2012

  Actual Average Record
Temperature  
Mean Temperature 58 °F -  
Max Temperature 61 °F 70 °F 84 °F (1998)
Min Temperature 55 °F 54 °F 34 °F (2007)
Degree Days  
Heating Degree Days 7    
Growing Degree Days 8 (Base 50)    
Moisture  
Dew Point 51 °F    
Average Humidity 79    
Maximum Humidity 87    
Minimum Humidity 74    
Precipitation  
Precipitation 0.00 in - - ()
Sea Level Pressure  
Sea Level Pressure 30.21 in    
Wind  
Wind Speed 15 mph (North)    
Max Wind Speed 21 mph    
Max Gust Speed 29 mph    
Visibility 9 miles    
Events      
Averages and records for this station are not official NWS values.
T = Trace of Precipitation, MM = Missing Value Source: NWS Daily Summary

Daily Weather History Graph

Daily Weather History Graph

Search for Another Location

Airport or City:

Trip Planner

Search our weather history database for the weather conditions in past years. The results will help you decide how hot, cold, wet, or windy it might be!

Date:

Astronomy

Nov. 17, 2012 Rise Set
Actual Time 6:54 AM EST 5:29 PM EST
Civil Twilight 6:28 AM EST 5:54 PM EST
Nautical Twilight 5:59 AM EST 6:23 PM EST
Astronomical Twilight 5:31 AM EST 6:52 PM EST
Moon 10:37 AM EST (11/17) 9:36 PM EST (11/17)
Length of Visible Light 11h 25m
Length of Day
10h 34m
Waxing Crescent, 20% of the Moon is Illuminated
Nov 17
Waxing Crescent
Nov 20
First Quarter
Nov 28
Full
Dec 6
Last Quarter
Dec 13
New

Hourly Weather History & Observations

Time (EST) Temp. Dew Point Humidity Pressure Visibility Wind Dir Wind Speed Gust Speed Precip Events Conditions
12:53 AM 55.0 °F 48.9 °F 80% 30.21 in 10.0 mi North 15.0 mph - N/A   Overcast
1:53 AM 55.0 °F 50.0 °F 83% 30.19 in 10.0 mi North 13.8 mph - N/A   Overcast
2:53 AM 55.0 °F 50.0 °F 83% 30.18 in 10.0 mi NNW 15.0 mph - N/A   Overcast
3:53 AM 55.0 °F 50.0 °F 83% 30.17 in 10.0 mi North 12.7 mph - N/A   Overcast
4:53 AM 55.9 °F 51.1 °F 84% 30.17 in 10.0 mi NNW 12.7 mph - N/A   Overcast
5:53 AM 55.9 °F 52.0 °F 87% 30.19 in 10.0 mi NNW 12.7 mph - N/A   Overcast
6:53 AM 60.1 °F 54.0 °F 80% 30.19 in 9.0 mi NNE 17.3 mph - N/A   Overcast
7:49 AM 60.8 °F 53.6 °F 77% 30.22 in 7.0 mi North 15.0 mph - N/A   Overcast
7:53 AM 60.1 °F 54.0 °F 80% 30.21 in 7.0 mi North 16.1 mph - N/A   Overcast
8:53 AM 57.0 °F 52.0 °F 83% 30.22 in 7.0 mi NNW 12.7 mph - N/A   Overcast
9:53 AM 60.1 °F 55.0 °F 83% 30.23 in 7.0 mi NNE 17.3 mph 25.3 mph N/A   Overcast
10:53 AM 61.0 °F 54.0 °F 78% 30.23 in 8.0 mi NNE 16.1 mph - N/A   Overcast
11:53 AM 61.0 °F 53.1 °F 75% 30.22 in 8.0 mi NNE 13.8 mph - N/A   Overcast
12:53 PM 59.0 °F 52.0 °F 78% 30.21 in 8.0 mi NNE 18.4 mph - N/A   Overcast
1:53 PM 60.1 °F 52.0 °F 75% 30.19 in 10.0 mi NNE 17.3 mph - N/A   Mostly Cloudy
2:53 PM 57.9 °F 51.1 °F 78% 30.20 in 10.0 mi NNE 20.7 mph - N/A   Overcast
3:53 PM 57.0 °F 51.1 °F 81% 30.22 in 9.0 mi North 16.1 mph 25.3 mph N/A   Overcast
4:53 PM 57.0 °F 51.1 °F 81% 30.21 in 8.0 mi North 18.4 mph - N/A   Overcast
5:53 PM 57.0 °F 51.1 °F 81% 30.24 in 8.0 mi NNE 19.6 mph 24.2 mph N/A   Overcast
6:53 PM 57.0 °F 50.0 °F 77% 30.25 in 10.0 mi NNE 19.6 mph 26.5 mph N/A   Overcast
7:53 PM 57.9 °F 51.1 °F 78% 30.25 in 10.0 mi NNE 17.3 mph - N/A   Overcast
8:53 PM 57.0 °F 48.9 °F 74% 30.25 in 10.0 mi North 18.4 mph 28.8 mph N/A   Overcast
9:53 PM 57.0 °F 48.9 °F 74% 30.25 in 10.0 mi North 17.3 mph - N/A   Overcast
10:53 PM 55.9 °F 48.0 °F 75% 30.24 in 10.0 mi North 13.8 mph - N/A   Overcast
11:53 PM 55.9 °F 48.0 °F 75% 30.23 in 10.0 mi North 16.1 mph - N/A   Overcast